HTV-9 (KOUNOTORI 9) (45607 NORAD) Tracking and Keplerian Element Data

This shows tracking and keplerian element data for the satellite.

Feedback or suggestion? Click here.




ElementValue
Catalog45607
NameHTV-9 (KOUNOTORI 9)
Epoch Orbit711
Epoch Day187.54837485
Epoch Year2020
RAAN257.5797
Inclination51.6467
Eccentricity0.0002799
Argument of Perigee70.8724
Mean Anonmoly27.1982
Mean Motion15.49176567
Decay Rate-3.16E-06
L11 45607U 20030A 20187.54837485 -.00000316 00000-0 24276-5 0 9996
L22 45607 51.6467 257.5797 0002799 70.8724 27.1982 15.49176567 7119

Live tracking and technical data element details for HTV-9 (KOUNOTORI 9) (NORAD 45607). HTV-9 (KOUNOTORI 9) can be tracked NOW for your location showing map with azimuth and elevation plus other details from your city location.

Track the satellite on the map from your city or location and see movement details for azimuth, elevation, latitude, longitude, range, height, and movement on the map or in text.







IsCatalogInMostPopularTable: catalog: 45607, numindb: 7
Update: records affected: 1



GetName: 45607 HTV-9 (KOUNOTORI 9)

Hit Count: updated at: Wed, 08 Jul 2020 05:01:17 GMT